Starlink 32904

operational
NORAD ID: 63198 Int'l Des: 2025-048 Owner: SPXS Country: US Constellation: starlink
LEOCIRCULAR

About Starlink 32904

Description loading...

Live Position

Loading 3D Globe...

Upcoming Passes

Altitude History

Altitude vs Time

uPlot chart will show altitude changes over time

Two-Line Element Set

1 63198U 25048R 26094.89323696 .00029682 00000-0 10832-2 0 9996
2 63198 43.0040 296.9898 0002381 259.5396 100.5187 15.27597723 61102
Epoch: Apr 4, 2026 • Age: 18 hours

Current Status

Altitude 482.2 km
Velocity 7.63 km/s
Sub-Earth Point 5.65°N, 41.04°E
Launch Date Mar 13, 2025
Age 1 years
Type internet

Technical Details

Classification Payload
Mass 730.00 kg
Dry Mass 700.00 kg
Total Mass 730.00 kg
Length 0.30 m
Diameter 4.10 m
Span 29.00 m
Shape Box + pan
Manufacturer SPXS
Bus Type Starlink V2M
Phase Status In Orbit
Owner/State SPXS/US

Large Constellations

Loading constellations...